User: anonymous   Login
Location: Fort Hays State University
(38.8712°N, 99.3432°W)
Time: 03:41:40
(UTC-05:00)
Language:

Cosmos 2279 Rocket - Orbit

View from above orbital plane
View from above orbital plane
View from above satellite
View from above satellite

Ground track
Ground track

The orbit data is extracted from the following two-line orbital elements,

1 23093U 94024B   16275.17133408  .00000127  00000-0  11184-3 0  9992
2 23093  82.9453 307.1336 0010367  18.4292 341.7239 13.77706839595768
Epoch (UTC): 01 October 2016 04:06:43
Eccentricity: 0.0010367
inclination: 82.9453°
perigee height: 964 km
apogee height: 979 km
right ascension of ascending node: 307.1336°
argument of perigee: 18.4292°
revolutions per day: 13.77706839
mean anomaly at epoch: 341.7239°
orbit number at epoch: 59576

The dashed part of the orbit path shows where the satellite is in the earth's shadow,  

DLR